Location: Star Hoppers Observatory
(42.7905°N, 83.6127°W)
Time: 04:08:37
(UTC-04:00)

Daily predictions for brighter satellites

Satellite Brightness Start Highest point End
(mag) Time Altitude Azimuth Time Altitude Azimuth Time Altitude Azimuth
Cosmos 1346 3.4 00:04:05 64° N 00:04:05 64° N 00:06:45 10° N
ALOS 2 4.2 00:06:36 21° E 00:07:44 23° ENE 00:11:12 10° NNE
Nadezhda 1 Rocket 4.1 00:03:36 10° NNW 00:09:38 69° W 00:12:27 33° SSW
SL-16 R/B 3.2 00:05:49 10° N 00:11:06 38° ENE 00:13:40 25° ESE
Lacrosse 4 Rocket 3.2 00:09:05 10° N 00:12:50 26° NE 00:14:35 20° E
Cosmos 1869 3.2 00:08:50 10° N 00:12:54 84° W 00:13:24 67° S
NOSS 3-1 (A) 3.7 00:08:16 10° SW 00:14:10 70° NW 00:20:46 10° NNE
COSMOS 2428 3.9 00:11:24 10° NW 00:16:19 31° WSW 00:18:35 23° SW
Cosmos 1455 2.6 00:17:54 10° NNW 00:21:35 50° W 00:21:56 48° WSW
Cosmos 2297 Rocket 2.2 00:25:45 47° S 00:27:15 66° ESE 00:32:52 10° NNE
ERBS 4.4 00:30:25 19° ENE 00:30:25 19° ENE 00:31:35 10° ENE
Cosmos 1709 Rocket 3.9 00:27:28 41° S 00:29:46 86° E 00:35:54 10° N
H-2A R/B 3.5 00:27:02 10° NNE 00:30:32 33° E 00:30:32 33° E
Cosmos 2221 Rocket 3.6 00:28:13 10° N 00:32:48 70° E 00:33:22 62° SE
Cosmos 192 4.3 00:28:21 10° NNW 00:33:16 78° WSW 00:34:11 58° S
COS B Rocket 3.1 00:31:40 10° N 00:35:12 81° ENE 00:35:12 81° ENE
Cosmos 1703 Rocket 3.4 00:32:14 10° N 00:36:37 82° E 00:37:00 72° SE
ATLAS 2AS CENTAUR R/B 2.9 00:32:38 31° SSW 00:36:39 74° ESE 00:44:42 10° NE
Cosmos 2219 Rocket 2.9 00:31:42 10° NW 00:36:57 42° WSW 00:38:24 35° SW
GEOS 3 Rocket 3.6 00:35:40 47° SE 00:37:14 84° NE 00:42:28 10° NW
COSMOS 2455 3.0 00:33:51 10° NNW 00:39:52 66° ENE 00:42:07 39° SE
CZ-2C R/B 4.2 00:38:05 10° NE 00:41:44 19° E 00:42:07 19° E
Okean 1-7 3.2 00:37:49 10° N 00:42:02 56° E 00:42:15 56° E
H-2A R/B 4.0 00:41:19 16° SW 00:43:42 20° W 00:47:41 10° NW
Cosmos 2181 Rocket 4.0 00:42:17 10° N 00:48:39 77° W 00:50:50 44° S
Cosmos 1980 4.2 00:45:16 10° NW 00:50:37 45° WSW 00:51:50 39° SW
Cosmos 1269 Rocket 4.0 00:49:56 10° NNW 00:55:16 78° WSW 00:56:14 59° S
Cosmos 389 Rocket 3.0 00:52:33 10° N 00:55:35 56° NNE 00:55:35 56° NNE
Geosat 4.5 00:52:15 10° NE 00:57:02 43° ESE 00:57:05 43° ESE
Meteor 2-3 Rocket 3.9 00:57:40 48° SE 00:58:51 58° E 01:04:28 10° NNE
ATLAS 3B R/B 2.6 00:52:37 10° NW 00:59:42 86° NE 01:02:13 42° SE
Cosmos 1933 3.9 00:56:19 10° NNW 01:00:14 46° W 01:00:15 46° W
USA 238 DEB 4.5 00:54:33 10° NNW 01:01:22 49° NE 01:06:14 19° ESE
USA 238 4.5 00:54:39 10° NNW 01:01:27 48° NE 01:06:22 19° ESE
Cosmos 2184 Rocket 4.1 00:59:55 47° SSE 01:01:35 65° E 01:07:42 10° NNE
Helios 1A Rocket 3.8 00:58:29 10° NNE 01:01:59 37° E 01:01:59 37° E
Cosmos 2237 Rocket 2.9 00:58:46 10° NW 01:04:01 39° WSW 01:05:04 36° SW
FALCON 9 R/B 3.2 00:56:47 10° W 01:09:26 40° SSW 01:09:35 40° SSW
Cosmos 1892 3.8 01:11:42 35° ENE 01:11:42 35° ENE 01:14:37 10° NNE
NOSS 2-3 (E) 4.0 01:11:18 58° SE 01:11:31 59° ESE 01:17:01 10° NE
CZ-4B R/B 2.2 01:17:43 53° NW 01:17:43 53° NW 01:20:29 10° NNW
H-2A ROCKET BODY 4.3 00:34:28 10° W 01:19:24 44° SSW 01:23:23 35° SSE
Cosmos 1782 3.9 01:20:19 10° N 01:23:58 35° ENE 01:23:58 35° ENE
Cosmos 1125 Rocket 4.1 01:22:54 35° WSW 01:24:42 50° WNW 01:29:53 10° N
Cosmos 1689 Rocket 3.6 01:26:12 38° NW 01:26:12 38° NW 01:28:29 10° NNW
Cosmos 1048 Rocket 4.3 01:20:53 10° NNW 01:26:04 53° WSW 01:26:43 49° SW
In-Cosmos 22 Rocket 4.3 01:28:10 51° SW 01:29:32 72° W 01:35:19 10° N
USA 234 4.3 01:24:48 10° E 01:30:53 43° NNE 01:36:58 10° NW
Cosmos 1340 Rocket 3.1 01:32:25 59° NE 01:32:25 59° NE 01:35:51 10° NNE
Aureole 2 Rocket 3.7 01:29:09 10° NNW 01:31:09 37° N 01:31:09 37° N
SeaSat 1 4.0 01:38:15 22° WSW 01:38:15 22° WSW 01:41:55 10° NW
NOSS 2-3 (C) 3.9 01:37:40 60° SW 01:38:38 86° WNW 01:44:24 10° NE
Cosmos 44 Rocket 3.3 01:39:15 68° S 01:39:53 81° ESE 01:45:09 10° NE
Cosmos 1825 4.2 01:42:13 20° E 01:42:13 20° E 01:44:44 10° NE
ALOS 2 3.6 01:44:00 34° W 01:44:00 34° W 01:47:53 10° NNW
Cosmos 2227 Rocket 4.1 01:39:31 10° WSW 01:44:03 24° NW 01:48:40 10° N
Cosmos 1733 Rocket 2.9 01:46:04 85° SW 01:46:10 87° W 01:50:40 10° N
Cosmos 2333 Rocket 4.2 01:45:34 10° WNW 01:48:30 14° W 01:49:11 14° WSW
Cosmos 1408 4.4 01:49:45 24° E 01:49:45 24° E 01:52:31 10° NE
Lacrosse 4 Rocket 2.6 01:47:34 10° NW 01:50:55 34° W 01:50:55 34° W
Coronas F rocket 3.8 01:53:28 23° N 01:53:28 23° N 01:54:38 10° N
Cosmos 2263 Rocket 3.7 01:51:58 22° ESE 01:52:51 23° E 01:57:12 10° NE
SL-16 R/B 3.1 01:50:05 10° NW 01:55:07 33° WSW 01:55:32 33° WSW
Meteor 1-27 Rocket 4.1 01:49:44 10° N 01:55:33 60° ENE 01:57:22 41° SE
Cosmos 2227 4.1 01:55:02 57° SSW 01:56:15 89° WNW 02:01:58 10° NNE
BREEZE-M DEB (TANK) 2.4 01:51:15 10° WNW 01:57:18 77° NW 01:57:18 77° NW
NOSS 3-4 (A) 4.4 01:57:31 30° SE 01:58:31 32° ESE 02:04:11 10° NE
NOSS 3-4 (C) 4.4 01:57:37 30° SE 01:58:37 32° ESE 02:04:15 10° NE
Cosmos 1378 Rocket 4.0 01:55:18 10° N 01:59:36 51° E 02:00:00 49° E
NOSS 2-3 (D) 4.3 01:58:18 43° WSW 01:59:49 63° NW 02:05:34 10° NNE
Cosmos 1356 Rocket 3.4 02:03:04 74° NW 02:03:04 74° NW 02:06:55 10° N
Okean 3 4.3 01:59:08 10° N 02:03:13 41° ENE 02:03:49 39° E
ASTEX 1 4.4 01:59:08 10° NNW 02:03:34 35° WNW 02:04:30 32° W
Cosmos 1862 3.9 02:06:05 49° E 02:06:05 49° E 02:09:48 10° NNE
H-2A R/B 4.3 02:02:59 10° NNW 02:06:14 22° WNW 02:07:11 21° W
Nadezhda 3 Rocket 3.9 02:01:22 10° N 02:07:34 76° W 02:09:17 50° SSW
Cosmos 158 Rocket 4.5 02:02:37 10° NNW 02:07:36 43° WSW 02:07:53 42° WSW
CZ-3 Stage 3 4.3 01:49:21 10° W 02:09:53 36° SSW 02:09:53 36° SSW
Okean 2 Rocket 4.0 02:10:09 37° ESE 02:10:41 38° E 02:14:52 10° NNE
Cosmos 2297 Rocket 4.2 02:07:31 10° W 02:11:47 22° NW 02:16:06 10° N
Cosmos 1238 Rocket 2.8 02:08:47 10° N 02:12:49 77° NNE 02:12:49 77° NNE
CZ-2C R/B 3.2 02:11:35 51° S 02:13:09 87° WSW 02:18:51 10° NNW
Meteor 2-6 Rocket 4.4 02:13:33 10° NNW 02:19:17 64° W 02:20:38 50° SSW
CZ-4C R/B 3.0 02:12:39 10° NNW 02:19:42 73° NE 02:26:09 16° SE
Cosmos 1782 Rocket 3.7 02:19:57 56° ESE 02:20:16 57° E 02:24:35 10° NNE
Cosmos 1943 3.4 02:15:28 10° NNW 02:21:10 68° ENE 02:23:36 35° SE
CZ-2C R/B 2.9 02:17:15 10° N 02:22:22 55° WNW 02:23:38 43° WSW
COSMOS 2455 4.3 02:20:52 10° WNW 02:25:14 21° WSW 02:25:14 21° WSW
Cosmos 2251 Rocket 4.1 02:21:01 10° NW 02:25:58 40° WSW 02:26:18 39° WSW
ATLAS 2AS CENTAUR R/B 4.4 02:21:28 10° W 02:28:25 35° NW 02:35:43 10° NNE
Cosmos 1606 2.9 02:24:37 10° NNW 02:28:05 61° WNW 02:28:05 61° WNW
Cosmos 1603 4.0 02:23:18 10° NW 02:28:43 46° WSW 02:29:23 44° SW
Cosmos 1867 4.3 02:33:04 10° NNW 02:38:26 51° NE 02:43:22 12° SE
PSLV R/B 3.8 02:35:55 10° NNE 02:40:03 52° E 02:40:32 49° SE
Cosmos 1975 Rocket 2.9 02:38:20 10° N 02:42:45 82° W 02:43:12 70° SSW
BREEZE-M DEB (TANK) 4.0 02:28:06 10° WSW 02:45:16 76° NNW 02:49:35 10° ENE
Cosmos 1242 Rocket 3.8 02:43:10 10° N 02:46:22 32° ENE 02:47:00 30° E
Cosmos 1607 3.9 02:40:48 10° NW 02:46:49 58° WSW 02:48:30 44° S
ATLAS 3B R/B 4.1 02:45:05 10° WNW 02:49:24 18° WSW 02:49:26 18° WSW
Cosmos 1908 Rocket 4.3 02:49:24 37° W 02:49:51 38° WNW 02:53:56 10° N
Cosmos 921 Rocket 3.8 02:51:16 34° W 02:51:51 36° WNW 02:55:46 10° N
USA 238 DEB 4.2 02:45:47 10° NW 02:52:13 40° WSW 02:53:37 36° SW
USA 238 4.2 02:45:53 10° NW 02:52:19 40° WSW 02:53:45 36° SW
Cosmos 44 3.9 02:53:21 36° WSW 02:55:22 57° NW 03:00:46 10° NNE
NPP 4.2 02:59:19 10° NNE 03:04:35 51° E 03:06:51 31° SSE
Cosmos 2151 Rocket 3.7 03:07:47 47° SSE 03:08:56 71° E 03:13:23 10° NNE
SL-16 R/B 4.4 03:03:53 10° ESE 03:08:57 27° ENE 03:14:01 10° N
BREEZE-M TANK 2.0 03:05:15 10° WNW 03:09:15 73° N 03:11:45 10° E
Iridium 4 Rocket 3.3 03:06:05 10° N 03:10:41 76° E 03:12:32 38° SSE
Cosmos 1812 4.2 03:09:02 10° N 03:12:36 34° ENE 03:14:38 20° SE
Cosmos 1184 Rocket 2.8 03:13:17 74° WNW 03:13:17 74° WNW 03:16:38 10° N
USA 234 3.1 03:07:08 10° SE 03:13:39 72° SW 03:20:12 10° NW
Abrixas rocket 3.4 03:15:16 32° ESE 03:15:16 32° ESE 03:17:38 10° ENE
ARIANE 5 R/B 4.4 03:11:04 10° NE 03:14:49 21° E 03:18:19 11° SE
RESURS DK-1 2.4 03:14:33 53° S 03:15:20 67° ESE 03:19:30 10° NNE
Cosmos 1825 3.5 03:17:09 26° W 03:17:23 26° WNW 03:20:38 10° NNW
ERS-2 2.8 03:15:02 10° NNE 03:18:38 48° E 03:19:28 39° SE
CBERS-1 4.3 03:17:51 10° NNE 03:22:58 62° E 03:25:21 31° S
Cosmos 1408 4.3 03:24:16 22° W 03:24:35 22° WNW 03:27:35 10° NNW
Okean 1 Rocket 4.2 03:23:13 22° SE 03:25:29 37° E 03:29:35 10° NNE
NOSS 3-2 (C) 4.0 03:18:48 10° NW 03:26:16 68° WSW 03:34:15 10° SSE
CENTAUR R/B 4.0 03:20:45 10° NNW 03:28:11 49° NE 03:36:07 10° ESE
CZ-2D R/B 4.1 03:25:24 10° NE 03:29:39 23° E 03:33:54 10° SE
Cosmos 1339 Rocket 4.5 03:28:50 10° NNW 03:34:51 64° W 03:37:57 29° SSW
GP-B 3.4 03:30:26 10° N 03:34:52 64° E 03:37:07 28° SSE
Cosmos 1844 Rocket 3.9 03:31:31 18° SSE 03:34:54 34° ESE 03:39:58 10° NE
SL-24 DEB 4.2 03:31:41 10° N 03:36:21 85° E 03:38:27 33° S
Cosmos 2263 Rocket 2.6 03:33:39 29° SW 03:36:22 54° WNW 03:41:57 10° NNE
Meteor 1-25 Rocket 4.2 03:35:22 29° S 03:38:23 85° E 03:44:11 10° N
COSMOS 2406 3.4 03:34:31 10° NNW 03:40:19 75° ENE 03:46:04 10° SSE
Cosmos 1190 Rocket 3.9 03:38:20 10° NNW 03:43:36 82° WSW 03:47:22 19° SSE
SL-08 R/B 3.4 03:41:41 30° S 03:44:03 65° WSW 03:48:57 10° NNW
NOSS 3-4 (A) 4.1 03:44:56 21° WSW 03:49:07 52° NW 03:55:36 10° NNE
NOSS 3-4 (C) 4.1 03:45:02 21° WSW 03:49:13 53° NW 03:55:42 10° NNE
IRS-1C 4.1 03:44:54 10° NNE 03:50:17 89° ESE 03:53:23 26° SSW
NOSS 3-2 (A) 4.4 03:44:02 10° NW 03:51:01 41° WSW 03:56:22 18° S
Cosmos 2056 Rocket 3.7 03:48:43 30° SW 03:51:20 64° WNW 03:56:34 10° NNE
Cosmos 2278 Rocket 4.0 03:47:05 10° SSE 03:51:26 23° E 03:55:48 10° NE
Spot 4 Rocket 4.1 03:50:44 10° NNE 03:55:54 73° ESE 03:59:14 22° S
Tiangong 1 1.8 03:59:17 35° SSE 03:59:17 35° SSE 04:01:29 10° SE
Cosmos 1025 Rocket 4.2 03:56:36 10° N 04:00:40 40° ENE 04:04:43 10° SSE
Cosmos 1535 Rocket 4.5 03:56:38 21° S 04:00:55 89° W 04:07:13 10° N
ATLAS 5 CENTAUR R/B 4.4 03:55:56 10° NNW 04:01:05 30° NE 04:06:33 10° ESE
Cosmos 407 Rocket 3.4 03:56:15 10° NNW 04:01:22 71° WSW 04:05:49 14° S
AQUA 4.1 03:58:56 10° N 04:03:34 53° WNW 04:06:04 26° SW
Cosmos 1809 Rocket 4.4 04:00:04 20° S 04:04:29 88° E 04:10:40 10° N
Cosmos 676 Rocket 3.9 04:01:36 10° NNW 04:06:50 85° WSW 04:12:00 10° SSE
Cosmos 1536 4.1 04:04:07 12° SSE 04:07:32 38° E 04:11:19 10° NNE
CZ-4C R/B 3.8 04:02:00 10° WNW 04:07:55 27° WSW 04:11:13 20° SSW
SL-27 R/B 2.5 04:07:47 10° NNW 04:11:25 66° WSW 04:13:49 20° S
IRS-1D 3.6 04:11:45 10° NNE 04:16:52 72° ESE 04:20:59 15° S
USA 161 1.6 04:16:08 36° SSW 04:16:56 52° W 04:19:47 10° NNW
Cosmos 724 4.3 04:11:37 10° NW 04:17:43 76° WSW 04:23:53 10° SSE
Meteor 2-21 4.4 04:13:34 19° SSW 04:18:03 74° W 04:24:10 10° N
Gbstr 26 Del rocket 3.4 04:16:42 23° SSW 04:18:37 40° SE 04:22:08 10° ENE
UNKNOWN OBJECT B 4.1 04:15:16 10° NNE 04:19:07 38° E 04:22:56 10° SSE
OTV 4 2.3 04:22:22 16° SSE 04:22:22 16° SSE 04:23:27 10° SE
Resurs 1-4 Rocket 2.4 04:16:10 10° NNE 04:21:28 65° E 04:26:23 12° S
H-2A R/B 4.4 04:18:33 18° SSW 04:22:39 23° S 04:43:06 10° SE
Cosmos 1300 Rocket 4.2 04:23:44 22° SW 04:26:07 40° WNW 04:30:15 10° N
Meteor 1-19 Rocket 4.3 04:23:02 10° N 04:28:53 87° E 04:34:44 10° S
Cosmos 1954 Rocket 4.0 04:30:24 10° NNW 04:35:30 61° WSW 04:40:35 10° S
BREEZE-M DEB (TANK) 4.5 04:23:26 10° WNW 04:36:52 50° N 04:40:37 10° ENE
Cosmos 1892 Rocket 3.8 04:33:57 10° N 04:38:18 70° E 04:42:37 10° SSE
NOSS 2-2 (E) 3.8 04:35:27 17° SSW 04:38:40 66° ESE 04:43:31 10° NE
Meteor 1-11 Rocket 3.9 04:35:08 13° SSW 04:40:23 72° WNW 04:46:23 10° N
EO 1 Del DPAF 3.3 04:36:39 10° S 04:40:26 58° W 04:44:18 10° NNW
Cosmos 1633 2.6 04:37:17 13° S 04:40:27 80° E 04:44:06 10° N
Cosmos 1934 Rocket 4.3 04:39:43 14° SSW 04:45:01 54° WNW 04:51:05 10° N
SME Rocket 2.8 04:41:19 10° S 04:45:02 67° WSW 04:49:03 10° NNW
USA 129 2.4 04:49:27 10° SSE 04:51:32 54° ENE 04:53:38 10° N
Abrixas rocket 3.1 04:48:18 10° W 04:51:34 46° NNW 04:54:49 10° ENE
ERS-2 4.4 04:50:18 10° NW 04:52:02 13° WNW 04:53:46 10° W
SL-16 R/B 2.7 04:46:07 10° S 04:52:12 54° W 04:58:19 10° NNW
Cosmos 1356 3.5 04:48:45 10° S 04:52:18 82° E 04:55:52 10° NNE
Cosmos 1400 Rocket 2.7 04:49:44 10° S 04:53:37 87° E 04:57:33 10° N
ARIANE 5 R/B 2.9 04:49:24 10° N 04:54:11 46° WNW 04:58:39 12° SW
CZ-2C R/B 4.1 04:51:01 10° SSE 04:55:44 72° ENE 05:00:31 10° N
USA 234 4.5 04:53:14 10° SSW 04:57:22 18° WSW 05:01:32 10° W
Cosmos 1452 Rocket 4.3 04:53:20 13° SW 04:57:40 39° WNW 05:02:37 10° N
Cosmos 614 Rocket 4.0 04:53:09 10° NNW 04:58:23 90° ENE 05:03:31 10° SSE
COSMOS 2487 2.5 04:55:45 10° NNW 04:59:21 63° WSW 05:02:55 10° S
CZ-4B R/B 4.4 04:57:18 10° NNE 05:01:39 42° E 05:05:54 10° S
MTI 4.2 04:58:54 10° S 05:02:07 46° W 05:05:19 10° NNW
Thor Agena Rocket 4.1 04:57:08 10° SSE 05:02:15 63° ENE 05:07:20 10° N
Okean O Rocket 1.9 04:57:59 10° NNE 05:02:20 67° E 05:06:39 10° S
Meteor 1-23 Rocket 4.3 05:04:09 10° NNW 05:09:48 61° W 05:15:21 10° S
CZ-2D R/B 2.6 05:04:44 10° N 05:09:58 50° WNW 05:15:13 10° SW
Cosmos 1602 Rocket 4.3 05:05:51 10° N 05:10:07 55° E 05:14:22 10° SSE
Cosmos 1420 Rocket 4.3 05:05:31 10° SW 05:10:44 57° WNW 05:15:59 10° NNE
Cosmos 1605 Rocket 4.5 05:09:19 10° SSW 05:15:10 45° WNW 05:21:08 10° N
Okean 2 3.5 05:12:44 10° NNW 05:16:45 55° W 05:20:45 10° S
Cosmos 1315 Rocket 2.9 05:13:46 10° S 05:17:52 83° WNW 05:21:57 10° N
Cosmos 1844 Rocket 3.6 05:13:31 10° SW 05:18:44 37° WNW 05:23:59 10° N
CENTAUR R/B 3.3 05:11:33 10° NW 05:19:03 49° WSW 05:26:54 10° S
CZ-2D R/B 3.6 05:15:34 10° N 05:19:29 56° WNW 05:23:25 10° SSW
Cosmos 1844 4.2 05:14:35 10° SW 05:20:03 48° WNW 05:25:38 10° NNE
CZ-4B DEB 4.4 05:21:19 10° NNE 05:26:55 81° ESE 05:32:28 10° SSW
Cosmos 2016 Rocket 4.4 05:21:41 10° S 05:27:57 70° E 05:34:12 10° NNE
